Location: Dulzura
(32.6442°N, 116.7814°W)
Time: 20:14:34
(UTC+00:00)

H-2A R/B - Pass Details

Date: 07 December 2021
Orbit: 495 x 537 km, 97.3° (Epoch: 11 January)

Event Time Altitude Azimuth Distance (km) Brightness Sun altitude
Exits shadow 12:28:10 41° 68° (ENE) 758 3.8 -26.3°
Maximum altitude 12:28:49 46° 99° (E) 702 3.7 -26.2°
Drops below altitude 10° 12:32:27 10° 174° (S) 1,753 5.6 -25.4°
Sets 12:34:37 0° 180° (S) 2,644 6.4 -25.0°
